Waarnemingen

Advertentie
Mijn weer
Lahr, Duitsland (10805): temperatuur & dauwpunt: 19.02.2018 20:00:00 - 25.02.2018 20:00:00 (CET)Lahr, Duitsland (10805): temperatuur 5cm & temperatuur -5cm: 19.02.2018 20:00:00 - 25.02.2018 20:00:00 (CET)Lahr, Duitsland (10805): temperatuur -20cm & temperatuur -100cm: 19.02.2018 20:00:00 - 25.02.2018 20:00:00 (CET)Lahr, Duitsland (10805): windsnelheid & windstoten: 19.02.2018 20:00:00 - 25.02.2018 20:00:00 (CET)Lahr, Duitsland (10805): windrichting: 19.02.2018 20:00:00 - 25.02.2018 20:00:00 (CET)Lahr, Duitsland (10805): luchtdruk: 19.02.2018 20:00:00 - 25.02.2018 20:00:00 (CET)Lahr, Duitsland (10805): zicht: 19.02.2018 20:00:00 - 25.02.2018 20:00:00 (CET)Lahr, Duitsland (10805): Zonneschijnduur: 19.02.2018 20:00:00 - 25.02.2018 20:00:00 (CET)Lahr, Duitsland (10805): neerslag: 19.02.2018 20:00:00 - 25.02.2018 20:00:00 (CET)
Datum & Tijd tt [°C] td [°C] tt 5cm [°C] tt -5cm [°C] tt -20cm [°C] tt -100cm [°C] ff [km/u] ff [kn] fx [km/u] fx [kn] dd ppp [hPa] vv [km] sd [min] rr [mm]
25.02.2018 20:00:00 -2,4 -13,3 -3,4 -0,1 1,0 5,1 21 11 31 17 NO 1023,6 32 0 0,0
25.02.2018 19:00:00 -1,9 -13,3 -2,9 -0,1 1,0 5,1 18 10 25 14 NO 1023,1 39 0 0,0
25.02.2018 18:00:00 -0,9 -14,2 -2,0 0,0 1,0 5,1 15 8 29 16 ONO 1022,4 50 43 0,0
25.02.2018 17:00:00 0,5 -15,1 0,3 0,3 1,0 5,2 18 10 31 17 ONO 1021,8 42 60 0,0
25.02.2018 16:00:00 0,9 -15,6 1,7 1,1 1,0 5,2 21 11 32 17 NO 1021,8 21 60 0,0
25.02.2018 15:00:00 1,5 -14,7 3,0 1,1 1,0 5,2 19 10 40 22 NO 1021,8 24 60 0,0
25.02.2018 14:00:00 1,0 -16,2 2,7 0,0 1,1 5,2 21 11 38 21 ONO 1022,2 26 60 0,0
25.02.2018 13:00:00 0,3 -16,0 2,3 -0,2 1,1 5,2 22 12 34 18 NO 1022,8 22 60 0,0
25.02.2018 12:00:00 -0,6 -15,0 1,5 -0,3 1,1 5,2 17 9 31 17 NO 1023,3 20 60 0,0
25.02.2018 11:00:00 -1,8 -14,3 0,5 -0,5 1,1 5,2 19 10 34 18 NO 1023,6 23 60 0,0
25.02.2018 10:00:00 -3,1 -13,8 -1,5 -1,0 1,2 5,2 23 12 39 21 NO 1023,8 16 60 0,0
25.02.2018 09:00:00 -4,2 -12,9 -3,6 -1,6 1,2 5,2 26 14 35 19 NNO 1023,8 28 60 0,0
25.02.2018 08:00:00 -5,7 -11,5 -6,2 -2,0 1,3 5,2 16 9 27 14 NNO 1023,2 24 11 0,0
25.02.2018 07:00:00 -4,8 -11,7 -5,7 -1,8 1,3 5,2 17 9 26 14 NO 1022,8 26 0 0,0
25.02.2018 06:00:00 -4,5 -11,3 -5,5 -1,5 1,4 5,2 16 9 31 17 ONO 1022,3 25 0 0,0
25.02.2018 05:00:00 -3,9 -11,2 -4,6 -1,3 1,4 5,2 21 12 41 22 NO 1022,0 24 0 0,0
25.02.2018 04:00:00 -3,1 -10,6 -3,9 -0,9 1,5 5,2 22 12 43 23 ONO 1021,6 25 0 0,0
25.02.2018 03:00:00 -2,4 -10,1 -3,2 -0,5 1,5 5,2 25 14 40 22 ONO 1021,5 24 0 0,0
25.02.2018 02:00:00 -1,6 -10,1 -2,7 -0,2 1,6 5,2 21 11 37 20 ONO 1021,3 23 0 0,0
25.02.2018 01:00:00 -1,1 -9,9 -2,2 0,0 1,6 5,2 22 12 37 20 ONO 1021,2 23 0 0,0
25.02.2018 00:00:00 -1,1 -9,1 -2,3 0,1 1,7 5,2 20 11 36 19 ONO 1020,9 21 0 0,0
24.02.2018 23:00:00 -0,6 -8,0 -1,7 0,2 1,8 5,2 19 10 36 19 ONO 1020,6 21 0 0,0
24.02.2018 22:00:00 0,3 -7,6 -0,9 0,3 1,8 5,2 21 12 35 19 ONO 1020,1 24 0 0,0
24.02.2018 21:00:00 0,8 -7,3 -0,6 0,4 1,9 5,3 19 10 32 18 NO 1019,7 27 0 0,0
24.02.2018 20:00:00 1,7 -8,0 0,1 0,5 2,0 5,3 21 11 32 18 ONO 1019,1 27 0 0,0
24.02.2018 19:00:00 2,2 -8,6 0,8 0,7 2,1 5,3 22 12 35 19 NO 1018,3 27 0 0,0
24.02.2018 18:00:00 3,3 -9,4 1,9 1,6 2,0 5,3 22 12 40 22 NO 1017,6 22 41 0,0
24.02.2018 17:00:00 5,3 -9,7 4,6 3,6 1,7 5,3 26 14 48 26 NO 1016,6 29 60 0,0
24.02.2018 16:00:00 6,3 -11,1 6,6 4,4 1,4 5,3 21 12 50 27 ONO 1016,1 43 60 0,0
24.02.2018 15:00:00 6,0 -12,5 6,7 4,1 1,2 5,3 25 14 40 22 ONO 1016,0 22 60 0,0
24.02.2018 14:00:00 5,8 -10,7 7,0 1,6 1,2 5,3 20 11 53 29 NO 1016,0 22 60 0,0
24.02.2018 13:00:00 4,8 -9,1 5,6 -0,1 1,2 5,3 26 14 42 23 O 1016,3 15 60 0,0
24.02.2018 12:00:00 2,3 -6,0 4,2 -0,1 1,2 5,3 22 12 32 17 N 1016,9 8 60 0,0
24.02.2018 11:00:00 0,5 -5,9 2,3 -0,1 1,2 5,3 26 14 32 17 N 1017,1 7 46 0,0
24.02.2018 10:00:00 -1,3 -6,1 -0,7 -0,2 1,2 5,3 23 13 30 16 NNO 1017,3 7 3 0,0
24.02.2018 09:00:00 -2,4 -6,7 -1,9 -0,3 1,3 5,3 29 15 35 19 NNO 1017,2 6 0 0,0
24.02.2018 08:00:00 -2,9 -6,7 -3,0 -0,2 1,3 5,3 18 10 27 15 NNO 1016,8 7 0 0,0
24.02.2018 07:00:00 -2,4 -6,6 -2,5 -0,1 1,3 5,3 22 12 29 16 NNO 1016,2 8 0 0,0
24.02.2018 06:00:00 -1,8 -6,1 -1,8 -0,1 1,3 5,3 19 10 29 15 N 1016,2 8 0 0,0
24.02.2018 05:00:00 -1,5 -6,0 -1,6 0,0 1,3 5,3 20 11 27 15 N 1016,1 8 0 0,0
24.02.2018 04:00:00 -1,1 -5,6 -1,3 0,0 1,3 5,4 22 12 28 15 NNO 1015,7 8 0 0,0
24.02.2018 03:00:00 -0,2 -4,7 -0,5 0,0 1,3 5,4 13 7 27 15 NNO 1015,9 8 0 0,0
24.02.2018 02:00:00 0,7 -4,4 0,2 0,0 1,3 5,4 15 8 22 12 NNO 1016,2 8 0 0,0
24.02.2018 01:00:00 0,0 -4,8 -0,3 0,1 1,3 5,4 14 7 26 14 N 1016,5 9 0 0,0
24.02.2018 00:00:00 0,3 -4,9 0,0 0,1 1,3 5,4 14 8 35 19 N 1016,1 9 0 0,0
23.02.2018 23:00:00 1,8 -5,0 1,2 0,1 1,3 5,4 16 8 31 17 ONO 1016,1 10 0 0,0
23.02.2018 22:00:00 1,9 -5,2 1,1 0,1 1,3 5,4 10 6 25 14 O 1016,4 10 0 0,0
23.02.2018 21:00:00 1,9 -5,2 1,3 0,1 1,3 5,4 16 9 34 18 ONO 1016,1 11 0 0,0
23.02.2018 20:00:00 1,8 -5,1 1,2 0,1 1,3 5,4 21 11 37 20 ONO 1016,2 11 0 0,0
23.02.2018 19:00:00 1,7 -5,5 1,1 0,1 1,3 5,4 16 8 29 15 ONO 1016,4 10 0 0,0
23.02.2018 18:00:00 1,1 -4,8 0,6 0,1 1,3 5,4 15 8 24 13 NO 1016,2 10 0 0,0
23.02.2018 17:00:00 1,1 -5,2 0,8 0,0 1,3 5,4 11 6 25 13 NO 1016,0 10 0 0,0
23.02.2018 16:00:00 1,0 -5,4 1,0 0,0 1,3 5,4 15 8 31 17 ONO 1016,0 10 0 0,0
23.02.2018 15:00:00 0,9 -5,8 1,0 0,0 1,3 5,4 14 7 29 16 ONO 1016,1 11 0 0,0
23.02.2018 14:00:00 0,9 -5,6 1,4 0,0 1,3 5,4 22 12 30 16 NO 1015,9 12 0 0,0
23.02.2018 13:00:00 0,3 -5,8 0,8 0,0 1,3 5,4 24 13 32 18 NNO 1016,3 11 0 0,0
23.02.2018 12:00:00 -0,3 -5,9 0,3 0,0 1,4 5,4 23 12 33 18 NNO 1016,7 11 0 0,0
23.02.2018 11:00:00 -0,9 -6,5 -0,3 0,0 1,4 5,4 24 13 31 17 NNO 1016,8 13 0 0,0
23.02.2018 10:00:00 -1,0 -6,2 -0,6 0,0 1,4 5,5 23 13 35 19 NNO 1016,6 13 0 0,0
23.02.2018 09:00:00 -1,4 -6,7 -1,1 0,0 1,4 5,5 24 13 34 18 N 1016,2 15 0 0,0
23.02.2018 08:00:00 -1,4 -6,7 -1,4 0,0 1,4 5,5 25 13 33 18 NNO 1016,1 16 0 0,0
23.02.2018 07:00:00 -1,2 -6,4 -1,3 0,0 1,4 5,5 23 12 31 17 NNO 1015,7 17 0 0,0
23.02.2018 06:00:00 -0,8 -6,2 -0,9 0,1 1,4 5,5 18 10 30 16 NNO 1015,4 19 0 0,0
23.02.2018 05:00:00 0,4 -5,4 0,1 0,1 1,4 5,5 18 10 34 19 ONO 1015,5 11 0 0,0
23.02.2018 04:00:00 -0,5 -5,8 -0,7 0,1 1,4 5,5 17 9 27 15 NNO 1015,7 19 0 0,0
23.02.2018 03:00:00 -0,3 -5,8 -0,5 0,1 1,4 5,5 18 10 37 20 N 1016,0 19 0 0,0
23.02.2018 02:00:00 0,0 -5,5 -0,3 0,0 1,4 5,5 17 9 40 22 N 1016,2 17 0 0,0
23.02.2018 01:00:00 0,1 -5,2 -0,2 0,0 1,4 5,5 17 9 32 17 N 1016,5 17 0 0,0
23.02.2018 00:00:00 0,4 -5,4 0,1 0,0 1,4 5,5 18 10 29 16 NNO 1016,3 17 0 0,0
22.02.2018 23:00:00 0,8 -5,5 0,3 0,0 1,4 5,5 18 10 26 14 NNO 1016,5 20 0 0,0
22.02.2018 22:00:00 0,7 -5,5 0,3 0,0 1,4 5,5 16 9 23 12 N 1016,3 22 0 0,0
22.02.2018 21:00:00 0,9 -5,5 0,4 0,0 1,4 5,5 16 9 22 12 N 1016,4 25 0 0,0
22.02.2018 20:00:00 1,7 -6,5 1,0 0,0 1,4 5,5 19 10 38 20 NO 1016,5 19 0 0,0
22.02.2018 19:00:00 1,8 -6,8 1,2 0,0 1,5 5,5 21 11 39 21 NO 1016,3 18 0 0,0
22.02.2018 18:00:00 1,6 -6,1 1,0 0,0 1,5 5,5 22 12 36 19 NO 1016,2 17 0 0,0
22.02.2018 17:00:00 1,6 -6,4 1,3 0,0 1,5 5,5 29 16 39 21 NNO 1015,9 18 0 0,0
22.02.2018 16:00:00 1,8 -6,0 1,7 0,0 1,5 5,5 24 13 42 23 NO 1015,6 10 0 0,0
22.02.2018 15:00:00 2,5 -5,5 2,8 0,0 1,5 5,5 24 13 39 21 NO 1015,6 10 0 0,0
22.02.2018 14:00:00 2,1 -6,0 2,7 -0,1 1,5 5,5 26 14 38 20 NNO 1015,8 10 1 0,0
22.02.2018 13:00:00 1,3 -5,7 1,8 -0,1 1,6 5,5 24 13 36 19 NNO 1016,4 8 26 0,0
22.02.2018 12:00:00 1,1 -5,3 2,3 -0,1 1,6 5,5 26 14 34 18 NNO 1017,0 8 21 0,0
22.02.2018 11:00:00 -0,2 -5,7 -0,1 -0,2 1,6 5,5 23 13 35 19 NNO 1017,5 9 49 0,0
22.02.2018 10:00:00 -0,1 -5,5 1,5 -0,3 1,7 5,5 26 14 35 19 NNO 1017,2 9 44 0,0
22.02.2018 09:00:00 -1,3 -5,7 -1,0 -0,5 1,7 5,6 23 12 30 16 NNO 1017,4 9 9 0,0
22.02.2018 08:00:00 -2,2 -5,8 -2,5 -0,7 1,8 5,6 17 9 29 16 NNO 1017,6 7 0 0,0
22.02.2018 07:00:00 -2,3 -5,6 -2,6 -0,6 1,8 5,6 18 10 29 15 NO 1017,3 10 0 0,0
22.02.2018 06:00:00 -2,3 -5,6 -3,2 -0,5 1,9 5,6 17 9 29 15 NNO 1017,5 6 0 0,0
22.02.2018 05:00:00 -3,3 -5,9 -4,1 -0,2 2,0 5,6 18 10 22 12 NNO 1017,5 5 0 0,0
22.02.2018 04:00:00 -3,0 -5,8 -3,8 0,0 2,1 5,6 16 9 22 12 NNO 1017,8 6 0 0,0
22.02.2018 03:00:00 -2,2 -5,3 -3,2 0,1 2,1 5,6 17 9 20 11 NNO 1018,2 6 0 0,0
22.02.2018 02:00:00 -1,5 -4,9 -2,6 0,2 2,2 5,6 14 8 24 13 NO 1018,2 6 0 0,0
22.02.2018 01:00:00 -0,9 -4,9 -1,9 0,3 2,3 5,6 16 9 24 13 NO 1018,6 7 0 0,0
22.02.2018 00:00:00 -0,5 -4,5 -1,6 0,3 2,4 5,6 16 9 24 13 NO 1018,9 7 0 0,0
21.02.2018 23:00:00 -1,0 -4,4 -2,2 0,4 2,5 5,6 16 9 22 12 NNO 1019,2 6 0 0,0
21.02.2018 22:00:00 -0,4 -4,3 -3,6 0,5 2,6 5,6 4 2 10 5 NO 1019,6 6 0 0,0
21.02.2018 21:00:00 -0,8 -5,1 -3,1 0,5 2,8 5,6 10 5 13 7 N 1019,8 7 0 0,0
21.02.2018 20:00:00 -0,2 -4,5 -3,4 0,6 3,0 5,6 7 4 11 6 N 1019,8 6 0 0,0
21.02.2018 19:00:00 1,4 -3,8 -0,5 0,9 3,1 5,6 11 6 31 17 ONO 1019,3 7 0 0,0
21.02.2018 18:00:00 3,0 -3,8 1,7 2,4 3,1 5,6 22 12 33 18 NNO 1018,8 7 24 0,0
21.02.2018 17:00:00 3,5 -2,9 2,9 4,0 3,0 5,6 21 11 33 18 NNO 1018,5 7 51 0,0
21.02.2018 16:00:00 3,9 -2,8 4,5 5,4 2,7 5,6 28 15 35 19 NNO 1018,5 6 60 0,0
21.02.2018 15:00:00 3,9 -2,6 5,1 6,0 2,3 5,6 22 12 33 18 NNO 1019,0 6 59 0,0
21.02.2018 14:00:00 3,5 -2,1 4,6 4,8 2,0 5,6 22 12 33 18 N 1019,6 5 42 0,0
21.02.2018 13:00:00 2,9 -2,6 5,1 4,0 1,8 5,6 23 13 34 18 NNO 1020,0 7 52 0,0
21.02.2018 12:00:00 2,4 -2,3 3,5 0,2 1,8 5,6 19 11 29 15 NNO 1020,7 5 39 0,0
21.02.2018 11:00:00 1,9 -2,8 3,0 0,2 1,9 5,6 19 11 27 14 NNO 1020,7 6 60 0,0
21.02.2018 10:00:00 0,2 -3,1 0,8 0,2 1,9 5,6 13 7 21 11 NNO 1020,6 10 44 0,0
21.02.2018 09:00:00 -1,6 -3,8 -2,0 0,2 1,9 5,6 8 4 10 5 N 1020,7 5 0 0,0
21.02.2018 08:00:00 -3,1 -4,8 -4,2 0,2 2,0 5,6 8 5 16 9 N 1020,8 3,9 0 0,0
21.02.2018 07:00:00 -2,3 -4,1 -3,0 0,2 2,0 5,6 13 7 19 11 NNO 1021,0 4,0 0 0,0
21.02.2018 06:00:00 -1,4 -3,7 -2,2 0,3 2,1 5,6 13 7 23 12 NO 1020,6 4,2 0 0,0
21.02.2018 05:00:00 -0,9 -3,6 -1,5 0,3 2,1 5,6 16 9 24 13 NO 1020,2 4,4 0 0,0
21.02.2018 04:00:00 -0,4 -3,5 -0,5 0,3 2,2 5,6 14 8 20 11 NNO 1019,8 6 0 0,0
21.02.2018 03:00:00 -0,5 -3,0 -0,7 0,3 2,3 5,6 12 6 18 10 N 1019,7 5 0 0,0
21.02.2018 02:00:00 -0,2 -4,3 -1,0 0,4 2,4 5,6 8 5 22 12 NO 1019,4 9 0 0,0
21.02.2018 01:00:00 -0,1 -3,1 -1,5 0,2 2,5 5,6 10 6 13 7 NO 1019,1 7 0 0,0
21.02.2018 00:00:00 -0,1 -2,0 -0,6 0,7 2,5 5,7 6 3 9 5 NNO 1018,7 6 0 0,0
20.02.2018 23:00:00 0,4 -2,1 -0,1 0,9 2,6 5,7 5 3 6 3 NNW 1018,6 8 0 0,0
20.02.2018 22:00:00 1,2 -2,5 0,8 1,1 2,7 5,7 5 3 6 4 OZO 1018,5 7 0 0,0
20.02.2018 21:00:00 0,9 -2,4 0,4 1,3 2,7 5,7 4 2 5 3 O 1018,4 8 0 0,0
20.02.2018 20:00:00 1,1 -2,8 0,2 1,4 2,8 5,7 0 0 4 2 N 1018,4 10 0 0,0
20.02.2018 19:00:00 1,5 -3,2 0,7 1,7 2,8 5,7 2 1 8 4 NW 1018,1 10 0 0,0
20.02.2018 18:00:00 1,6 -3,7 1,3 2,2 2,8 5,7 6 3 11 6 N 1017,5 11 0 0,0
20.02.2018 17:00:00 1,8 -3,0 1,8 2,6 2,7 5,7 9 5 14 7 NNO 1017,0 11 0 0,0
20.02.2018 16:00:00 2,1 -4,1 2,5 2,7 2,7 5,7 10 6 16 9 ONO 1017,0 16 0 0,0
20.02.2018 15:00:00 1,8 -2,7 2,1 2,5 2,6 5,7 11 6 18 10 NNO 1017,3 9 0 0,0
20.02.2018 14:00:00 1,5 -1,9 2,0 2,6 2,5 5,7 11 6 14 8 NNO 1017,3 6 0 0,0
20.02.2018 13:00:00 1,3 -1,3 2,1 2,7 2,4 5,7 9 5 14 8 NNO 1017,3 8 0 0,0
20.02.2018 12:00:00 0,7 -2,4 1,7 2,5 2,3 5,7 9 5 14 8 N 1017,4 5 0 0,0
20.02.2018 11:00:00 0,6 -2,7 1,5 2,0 2,2 5,7 13 7 17 9 NNO 1017,3 8 0 0,0
20.02.2018 10:00:00 0,1 -3,3 0,9 0,9 2,2 5,7 14 7 18 10 N 1017,5 7 0 0,0
20.02.2018 09:00:00 -0,3 -3,6 -0,1 0,4 2,3 5,7 13 7 18 10 N 1017,5 8 0 0,0
20.02.2018 08:00:00 -0,6 -3,1 -0,7 0,1 2,4 5,7 11 6 16 9 N 1017,3 6 0 0,0
20.02.2018 07:00:00 -0,2 -2,0 -0,4 0,4 2,5 5,7 12 6 15 8 N 1016,9 4,2 0 0,0
20.02.2018 06:00:00 0,0 -1,4 -0,1 0,6 2,6 5,7 10 5 14 8 NNO 1016,8 3,3 0 0,0
20.02.2018 05:00:00 0,1 -1,3 0,0 0,7 2,7 5,7 10 5 13 7 NNO 1016,9 3,3 0 0,0
20.02.2018 04:00:00 0,3 -1,5 0,2 0,9 2,7 5,7 10 6 13 7 NNO 1016,9 4,3 0 0,0
20.02.2018 03:00:00 0,2 -1,2 0,0 1,0 2,8 5,7 6 3 8 4 N 1017,0 3,9 0 0,0
20.02.2018 02:00:00 0,4 -1,1 0,3 1,1 2,9 5,7 7 4 8 5 N 1017,2 4,9 0 0,0
20.02.2018 01:00:00 0,8 -1,3 0,5 1,3 3,0 5,7 8 4 9 5 NO 1017,3 6 0 0,0
20.02.2018 00:00:00 0,8 -1,0 0,6 1,4 3,0 5,7 5 3 7 4 NO 1017,5 6 0 0,0
19.02.2018 23:00:00 0,9 -1,0 0,5 1,5 3,1 5,7 6 3 7 4 NO 1017,7 7 0 0,0
19.02.2018 22:00:00 1,0 -1,6 0,4 1,7 3,2 5,7 0 0 4 2 N 1018,2 8 0 0,0
19.02.2018 21:00:00 1,2 -1,6 0,9 1,9 3,3 5,7 3 2 8 4 WNW 1018,4 9 0 0,0
19.02.2018 20:00:00 1,4 -2,3 1,0 2,2 3,4 5,7 5 3 8 4 NO 1018,4 13 0 0,0

tt = temperatuur
td = dauwpunt
tt 5cm = temperatuur 5cm
tt -5cm = temperatuur -5cm
tt -20cm = temperatuur -20cm
tt -100cm = temperatuur -100cm
ff = windsnelheid
fx = windstoten
dd = windrichting
ppp = luchtdruk
vv = zicht
sd = Zonneschijnduur
rr = neerslag

Weerstations in de omgeving